[[{"header":{"parameterUnit":"m.s-1","parameterCategory":1,"la1":30.2991,"la2":30.254,"lo1":-89.0895,"lo2":-89.0444,"dy":0.0017,"dx":0.0017,"nx":28,"ny":28,"refTime":"2026-02-15T03:00:00:Z","depth":0,"parameterNumber":2,"parameterNumberName":"U-component_of_WINDS"},"data":[0,0,0,0,0,0,0,0,0,0,0,0,0,0,0,0,0,0,0,0,0,0,0,0,0,0,0,0,0,0,0,0,0,0,0,0,0,0,0,0,0,0,0,0,0,0,0,0,0,0,0,0,0,0,0,0,0,0,-2.9246,-2.9248,0,-2.9362,-2.9363,-2.9364,-2.942,-2.942,-2.942,-2.942,-2.9537,-2.954,-2.9543,0,0,0,0,0,0,0,0,0,0,0,0,0,-2.9073,-2.9076,-2.9246,-2.9248,-2.9249,-2.9362,-2.9363,-2.9365,-2.942,-2.942,-2.942,-2.942,-2.9536,-2.954,-2.9544,0,0,0,0,0,0,0,0,0,0,0,0,0,-2.9164,-2.9077,-2.9246,-2.929,-2.9296,-2.9361,-2.9363,-2.9365,-2.942,-2.942,-2.942,-2.942,-2.9535,-2.954,-2.9544,-2.9574,0,0,-2.9559,-2.9561,0,0,0,0,0,0,0,0,-2.9159,-2.917,-2.9282,-2.9288,-2.9293,-2.9377,-2.9345,-2.9435,-2.942,-2.9373,-2.942,-2.942,-2.9484,-2.9493,-2.9514,-2.9579,-2.9584,-2.9559,-2.9562,-2.9564,-2.9565,0,0,0,0,0,0,0,-2.9152,-2.9166,-2.9292,-2.9284,-2.9291,-2.9304,-2.9317,-2.9362,-2.9427,-2.9377,-2.9381,-2.9394,-2.9487,-2.951,-2.9517,-2.9586,-2.9559,-2.9563,-2.9566,-2.9568,-2.9682,-2.9682,0,0,0,0,0,0,-2.9139,-2.916,-2.9288,-2.9295,-2.9225,-2.9307,-2.9322,-2.935,-2.9427,-2.9438,-2.9394,-2.9397,-2.9502,-2.9512,-2.9522,-2.9562,-2.9564,-2.9568,-2.9571,-2.9682,-2.9682,-2.9682,0,0,0,0,0,0,-2.9135,-2.915,-2.9284,-2.9229,-2.9247,-2.9311,-2.9341,-2.9352,-2.9375,-2.944,-2.9452,-2.9406,-2.9502,-2.9515,-2.9561,-2.9567,-2.957,-2.9575,-2.9682,-2.9682,-2.9682,-2.9643,0,0,0,0,0,0,-2.913,-2.9148,-2.916,-2.9229,-2.925,-2.9321,-2.9342,-2.9355,-2.9383,-2.9388,-2.9454,-2.9465,-2.9503,-2.9553,-2.9565,-2.9574,-2.9578,-2.9681,-2.9682,-2.9682,-2.9644,-2.9642,-2.964,0,0,0,0,0,-2.9124,-2.9144,-2.9161,-2.9176,-2.9266,-2.9321,-2.9333,-2.9377,-2.9384,-2.9396,-2.9438,-2.9463,-2.9564,-2.9558,-2.9572,-2.9581,-2.9681,-2.9682,-2.9682,-2.9645,-2.9642,-2.964,0,0,0,0,0,0,-2.9074,-2.9154,-2.9173,-2.9217,-2.9262,-2.933,-2.9348,-2.9373,-2.9416,-2.9418,-2.9471,-2.9485,-2.9526,-2.9558,-2.9549,-2.9615,-2.9625,-2.9629,-2.9592,-2.959,-2.9588,-2.958,-2.9582,0,0,0,0,0,-2.9068,-2.9106,-2.9174,-2.9206,-2.9228,-2.9283,-2.9309,-2.9339,-2.9388,-2.9407,-2.9452,-2.9498,-2.954,-2.9567,-2.9609,-2.9649,-2.9664,-2.9662,-2.966,-2.9659,-2.9661,-2.9685,-2.9685,-2.9684,-2.9684,-2.9684,0,0,-2.9057,-2.9105,-2.9126,-2.9197,-2.9236,-2.9274,-2.9299,-2.9338,-2.9367,-2.9413,-2.9459,-2.9493,-2.9548,-2.9591,-2.9612,-2.9619,-2.9665,-2.9659,-2.9657,-2.9661,-2.9685,-2.9685,-2.9685,-2.9684,-2.9684,-2.9684,0,0,-2.9055,-2.9095,-2.9126,-2.9165,-2.9223,-2.926,-2.9267,-2.9333,-2.9357,-2.9405,-2.944,-2.9475,-2.9547,-2.9584,-2.9613,-2.9626,-2.9651,-2.9638,-2.9628,-2.9651,-2.9651,-2.9651,-2.9657,-2.9658,-2.964,-2.964,-2.964,0,-2.9033,-2.9092,-2.9139,-2.9177,-2.9207,-2.9251,-2.9283,-2.9317,-2.9386,-2.9406,-2.9413,-2.9505,-2.9545,-2.9597,-2.9601,-2.9622,-2.9632,-2.9631,-2.9647,-2.9648,-2.9649,-2.9655,-2.9656,-2.9639,-2.9639,-2.9639,-2.9639,0,-2.9062,-2.9103,-2.9121,-2.9187,-2.9219,-2.9254,-2.9306,-2.9333,-2.936,-2.9397,-2.9445,-2.9494,-2.9548,-2.9562,-2.9589,-2.9619,-2.9622,-2.9637,-2.9649,-2.9647,-2.9653,-2.9655,-2.9636,-2.9637,-2.9637,-2.9638,0,0,-2.9032,-2.9124,-2.913,-2.9161,-2.9229,-2.9261,-2.9297,-2.935,-2.9373,-2.9419,-2.9451,-2.9511,-2.9526,-2.9558,-2.959,-2.961,-2.9618,-2.9623,-2.9625,-2.9621,-2.9654,-2.9642,-2.9644,-2.9635,-2.9635,-2.9636,-2.965,0,-2.904,-2.9108,-2.9152,-2.9202,-2.924,-2.9282,-2.9314,-2.9359,-2.9394,-2.9431,-2.947,-2.9512,-2.9529,-2.9549,-2.957,-2.9612,-2.9625,-2.9612,-2.9665,-2.9666,-2.965,-2.9647,-2.9634,-2.9645,-2.9652,-2.9653,-2.9653,0,-2.9058,-2.9104,-2.9158,-2.9222,-2.924,-2.9267,-2.932,-2.9355,-2.9407,-2.9431,-2.9468,-2.95,-2.954,-2.9549,-2.9605,-2.9595,-2.9619,-2.9643,-2.9645,-2.9651,-2.9659,-2.9654,-2.965,-2.9651,-2.9657,-2.9657,-2.9657,0,-2.9031,-2.9106,-2.9148,-2.9173,-2.9249,-2.9267,-2.93,-2.9352,-2.9381,-2.9427,-2.9446,-2.9496,-2.9523,-2.9561,-2.9606,-2.9608,-2.9658,-2.967,-2.9679,-2.9678,-2.9688,-2.9687,-2.9688,-2.9703,-2.9703,-2.9703,-2.9703,0,-2.9035,-2.9067,-2.9137,-2.9163,-2.92,-2.925,-2.9285,-2.9321,-2.9366,-2.94,-2.944,-2.947,-2.9528,-2.9566,-2.9601,-2.9643,-2.9655,-2.9675,-2.9684,-2.9672,-2.9669,-2.9689,-2.9689,-2.9704,-2.9703,-2.9703,-2.9703,0,-2.9011,-2.9059,-2.9108,-2.9176,-2.9194,-2.9218,-2.9276,-2.9303,-2.9341,-2.9383,-2.9396,-2.9454,-2.9501,-2.955,-2.9613,-2.9637,-2.9677,-2.969,-2.966,-2.9665,-2.9672,-2.967,-2.9685,-2.969,-2.9701,-2.9701,-2.9701,0,-2.901,-2.9036,-2.9107,-2.9132,-2.9164,-2.9204,-2.9235,-2.9285,-2.9315,-2.9376,-2.9396,-2.9446,-2.9488,-2.9561,-2.9609,-2.9658,-2.9672,-2.9674,-2.968,-2.9666,-2.9673,-2.967,-2.9674,-2.9672,-2.9671,-2.9671,-2.9671,0,-2.9004,-2.9027,-2.907,-2.9121,-2.9156,-2.9198,-2.9242,-2.9261,-2.932,-2.9351,-2.94,-2.9433,-2.9498,-2.9547,-2.9602,-2.9635,-2.9663,-2.9669,-2.9674,-2.9661,-2.9643,-2.9653,-2.9655,-2.9668,-2.9669,-2.9669,-2.9669,-2.9669,-2.8992,-2.9017,-2.9071,-2.9117,-2.9155,-2.9196,-2.9224,-2.9266,-2.9307,-2.9364,-2.9392,-2.944,-2.9492,-2.9569,-2.9601,-2.964,-2.9648,-2.9655,-2.9657,-2.9658,-2.9655,-2.9637,-2.9651,-2.9651,-2.9651,-2.9651,-2.9651,0,-2.8989,-2.9025,-2.9067,-2.9128,-2.9164,-2.9188,-2.9238,-2.9266,-2.9309,-2.9355,-2.9396,-2.9452,-2.95,-2.9553,-2.9604,-2.9625,-2.9639,-2.9637,-2.9636,-2.9643,-2.9645,-2.9636,-2.9625,-2.9625,-2.9625,-2.9625,-2.9625,-2.9625,-2.8991,-2.9034,-2.9063,-2.9126,-2.9163,-2.9211,-2.9238,-2.9275,-2.9313,-2.9374,-2.9414,-2.9448,-2.9497,-2.9552,-2.9598,-2.9612,-2.9629,-2.9623,-2.9641,-2.9641,-2.9643,-2.9645,-2.9637,-2.9626,-2.9626,-2.9636,-2.9636,-2.9636]},{"header":{"parameterUnit":"m.s-1","parameterCategory":1,"la1":30.2991,"la2":30.254,"lo1":-89.0895,"lo2":-89.0444,"dy":0.0017,"dx":0.0017,"nx":28,"ny":28,"refTime":"2026-02-15T03:00:00:Z","depth":0,"parameterNumber":3,"parameterNumberName":"V-component_of_WINDS"},"data":[0,0,0,0,0,0,0,0,0,0,0,0,0,0,0,0,0,0,0,0,0,0,0,0,0,0,0,0,0,0,0,0,0,0,0,0,0,0,0,0,0,0,0,0,0,0,0,0,0,0,0,0,0,0,0,0,0,0,3.6933,3.6933,0,3.6943,3.6943,3.6943,3.6929,3.6929,3.6928,3.6928,3.6936,3.6937,3.6937,0,0,0,0,0,0,0,0,0,0,0,0,0,3.6901,3.6901,3.6933,3.6933,3.6933,3.6943,3.6943,3.6943,3.6929,3.6929,3.6928,3.6927,3.6936,3.6937,3.6938,0,0,0,0,0,0,0,0,0,0,0,0,0,3.6913,3.6902,3.6933,3.6927,3.6927,3.6943,3.6943,3.6943,3.6929,3.6929,3.6928,3.6927,3.6936,3.6937,3.6938,3.6959,0,0,3.6941,3.6941,0,0,0,0,0,0,0,0,3.6912,3.6914,3.6928,3.6928,3.6927,3.6934,3.6935,3.6948,3.693,3.6928,3.6928,3.6927,3.6936,3.6937,3.694,3.6959,3.696,3.6941,3.6942,3.6942,3.6942,0,0,0,0,0,0,0,3.6912,3.6914,3.6937,3.6928,3.6928,3.6924,3.6925,3.6937,3.6936,3.6928,3.6927,3.6929,3.6936,3.6939,3.694,3.696,3.6941,3.6942,3.6942,3.6943,3.6999,3.6999,0,0,0,0,0,0,3.6911,3.6913,3.6936,3.6937,3.6918,3.6925,3.6926,3.6933,3.6936,3.6936,3.693,3.6928,3.6938,3.6939,3.6941,3.6967,3.6942,3.6943,3.6943,3.6998,3.6999,3.7,0,0,0,0,0,0,3.6911,3.6914,3.6936,3.6925,3.6927,3.6927,3.6934,3.6933,3.6937,3.6937,3.6936,3.6934,3.6937,3.6939,3.6955,3.6967,3.6943,3.6944,3.6997,3.6998,3.6999,3.702,0,0,0,0,0,0,3.691,3.6914,3.6922,3.6925,3.6928,3.6951,3.6935,3.6934,3.6939,3.6938,3.6941,3.694,3.6937,3.6954,3.6956,3.6968,3.6945,3.6996,3.6997,3.6999,3.7018,3.7022,3.7025,0,0,0,0,0,3.6909,3.6926,3.6922,3.6925,3.6938,3.6951,3.6953,3.6949,3.694,3.6948,3.6949,3.694,3.6966,3.6955,3.6958,3.6971,3.6995,3.6997,3.6999,3.7017,3.7021,3.7025,0,0,0,0,0,0,3.6923,3.6926,3.6922,3.6941,3.6946,3.6949,3.6959,3.6954,3.6961,3.6959,3.6953,3.6954,3.6972,3.6972,3.6961,3.6993,3.6979,3.6981,3.6991,3.6996,3.6999,3.6999,3.6946,0,0,0,0,0,3.6928,3.6939,3.6941,3.6958,3.6961,3.696,3.6965,3.6962,3.6967,3.6968,3.697,3.6974,3.6983,3.6989,3.6997,3.7018,3.7019,3.7028,3.7032,3.7034,3.7037,3.705,3.7054,3.7006,3.7006,3.7006,0,0,3.6939,3.6943,3.6949,3.6961,3.6964,3.6976,3.6961,3.6973,3.6982,3.697,3.6986,3.6987,3.6992,3.7011,3.7019,3.7012,3.7051,3.7037,3.7039,3.704,3.7052,3.7057,3.7061,3.7008,3.7007,3.7007,0,0,3.6966,3.6969,3.6984,3.6988,3.6995,3.6994,3.6998,3.7002,3.7002,3.7018,3.701,3.702,3.7035,3.704,3.7044,3.7074,3.7067,3.7077,3.7094,3.7107,3.7111,3.7114,3.7127,3.7131,3.7079,3.7079,3.7079,0,3.6979,3.6996,3.6992,3.7006,3.7012,3.7002,3.7018,3.7022,3.703,3.7035,3.7027,3.7047,3.705,3.7071,3.7078,3.7081,3.7086,3.7077,3.7111,3.7114,3.7117,3.7129,3.7133,3.708,3.708,3.708,3.708,0,3.7012,3.7024,3.7036,3.7046,3.7053,3.7067,3.7066,3.7073,3.707,3.707,3.7087,3.709,3.7099,3.7104,3.71,3.7125,3.712,3.7112,3.7098,3.7123,3.7134,3.7139,3.7082,3.7082,3.7081,3.7081,0,0,3.7047,3.7056,3.7061,3.7066,3.7073,3.7082,3.7097,3.7107,3.7114,3.712,3.7133,3.7147,3.714,3.7144,3.7141,3.7152,3.7178,3.7142,3.7142,3.715,3.7207,3.7215,3.722,3.7173,3.7174,3.7175,3.7208,0,3.7075,3.7101,3.7099,3.7124,3.7136,3.7128,3.7141,3.7147,3.7148,3.7158,3.7158,3.7169,3.7158,3.7161,3.7171,3.7173,3.719,3.717,3.7185,3.7186,3.7186,3.7226,3.7233,3.7264,3.7212,3.7212,3.7213,0,3.7111,3.7121,3.7147,3.7154,3.7159,3.717,3.7181,3.7191,3.7197,3.7197,3.7204,3.7199,3.7214,3.7199,3.722,3.7207,3.7213,3.7215,3.7216,3.7218,3.7202,3.723,3.7274,3.7279,3.7219,3.7219,3.7218,0,3.7137,3.7155,3.7174,3.7179,3.7187,3.7195,3.7199,3.7205,3.7212,3.7221,3.7226,3.7235,3.7241,3.7249,3.7247,3.7236,3.7269,3.7254,3.727,3.7271,3.7279,3.7278,3.7325,3.728,3.728,3.728,3.728,0,3.7169,3.7186,3.7186,3.7198,3.7217,3.7214,3.7233,3.7235,3.7241,3.7253,3.7246,3.7258,3.7254,3.7265,3.7264,3.7282,3.7284,3.7285,3.7285,3.7287,3.7287,3.7292,3.729,3.7281,3.7281,3.7281,3.728,0,3.7201,3.7201,3.7222,3.7228,3.7231,3.7244,3.725,3.7261,3.7262,3.7278,3.7281,3.7282,3.7296,3.7294,3.7308,3.7308,3.7331,3.7327,3.733,3.7329,3.7347,3.7346,3.7399,3.7407,3.7355,3.7356,3.7356,0,3.7222,3.7235,3.7244,3.7252,3.7257,3.727,3.7278,3.7276,3.7284,3.7294,3.7304,3.7317,3.7327,3.7348,3.735,3.7362,3.7359,3.7377,3.7361,3.7363,3.7361,3.7361,3.7363,3.7381,3.7381,3.7382,3.7382,0,3.726,3.726,3.7272,3.7285,3.7295,3.7304,3.7313,3.732,3.7319,3.7329,3.7343,3.7351,3.7367,3.738,3.7391,3.7394,3.7389,3.7387,3.7392,3.7395,3.7396,3.7397,3.734,3.7386,3.7386,3.7385,3.7385,3.7385,3.7288,3.7301,3.7309,3.7323,3.733,3.7339,3.735,3.7353,3.7366,3.7379,3.7377,3.7393,3.7401,3.7415,3.742,3.7433,3.7426,3.7432,3.7434,3.7436,3.7439,3.7393,3.7434,3.7434,3.7434,3.7434,3.7434,0,3.7328,3.7334,3.7347,3.736,3.7371,3.7365,3.7375,3.7385,3.74,3.7408,3.7418,3.7436,3.7449,3.7452,3.7465,3.7475,3.7472,3.7478,3.7478,3.7479,3.7443,3.7439,3.748,3.748,3.748,3.748,3.748,3.748,3.735,3.7371,3.7373,3.7397,3.7402,3.7419,3.7426,3.7434,3.7441,3.746,3.7472,3.7474,3.7481,3.7494,3.7506,3.7507,3.7513,3.752,3.752,3.7486,3.7482,3.7477,3.7473,3.7521,3.7521,3.7555,3.7555,3.7556]}]]